[[{"header":{"parameterUnit":"m.s-1","parameterCategory":1,"la1":30.2991,"la2":30.254,"lo1":-89.0895,"lo2":-89.0444,"dy":0.0017,"dx":0.0017,"nx":28,"ny":28,"refTime":"2025-09-15T03:00:00:Z","depth":0,"parameterNumber":2,"parameterNumberName":"U-component_of_WINDS"},"data":[0,0,0,0,0,0,0,0,0,0,0,0,0,0,0,0,0,0,0,0,0,0,0,0,0,0,0,0,0,0,0,0,0,0,0,0,0,0,0,0,0,0,0,0,0,0,0,0,0,0,0,0,0,0,0,0,0,0,-1.6527,-1.6527,0,-1.6579,-1.6579,-1.658,-1.6566,-1.6565,-1.6564,-1.6563,-1.6616,-1.6619,-1.6621,0,0,0,0,0,0,0,0,0,0,0,0,0,-1.6415,-1.6418,-1.6527,-1.6527,-1.6528,-1.6579,-1.6579,-1.658,-1.6566,-1.6565,-1.6564,-1.6562,-1.6616,-1.6618,-1.6621,0,0,0,0,0,0,0,0,0,0,0,0,0,-1.6465,-1.6418,-1.6527,-1.6527,-1.6528,-1.6579,-1.6579,-1.658,-1.6566,-1.6565,-1.6563,-1.6562,-1.6615,-1.6618,-1.6622,-1.6676,0,0,-1.6633,-1.6634,0,0,0,0,0,0,0,0,-1.6462,-1.6469,-1.6526,-1.6527,-1.6528,-1.6564,-1.656,-1.6612,-1.6567,-1.6552,-1.6563,-1.6561,-1.66,-1.6605,-1.6618,-1.6678,-1.668,-1.6633,-1.6635,-1.6637,-1.6638,0,0,0,0,0,0,0,-1.6459,-1.6467,-1.6547,-1.6527,-1.6528,-1.6525,-1.653,-1.657,-1.6584,-1.6553,-1.6552,-1.6558,-1.66,-1.6615,-1.6619,-1.6681,-1.6633,-1.6636,-1.6638,-1.664,-1.6788,-1.6789,0,0,0,0,0,0,-1.6455,-1.6464,-1.6546,-1.6549,-1.6491,-1.6528,-1.6534,-1.6554,-1.6584,-1.6587,-1.656,-1.6557,-1.6609,-1.6615,-1.6621,-1.6686,-1.6637,-1.664,-1.6642,-1.6786,-1.6788,-1.679,0,0,0,0,0,0,-1.6453,-1.6462,-1.6544,-1.6506,-1.6516,-1.6532,-1.6554,-1.6556,-1.657,-1.6589,-1.6591,-1.6572,-1.6608,-1.6616,-1.6662,-1.6688,-1.6642,-1.6645,-1.6784,-1.6787,-1.6789,-1.6816,0,0,0,0,0,0,-1.645,-1.6462,-1.6482,-1.6507,-1.6518,-1.6584,-1.6556,-1.6558,-1.6577,-1.6574,-1.6601,-1.6604,-1.6608,-1.6657,-1.6666,-1.6692,-1.6648,-1.6782,-1.6785,-1.6788,-1.6813,-1.682,-1.6825,0,0,0,0,0,-1.6446,-1.6488,-1.6483,-1.6493,-1.6544,-1.6585,-1.6592,-1.6596,-1.6579,-1.6599,-1.6611,-1.6603,-1.6684,-1.6662,-1.6672,-1.6699,-1.678,-1.6784,-1.6788,-1.6811,-1.6818,-1.6825,0,0,0,0,0,0,-1.6466,-1.6491,-1.6486,-1.6538,-1.6559,-1.6583,-1.6609,-1.6604,-1.6631,-1.6627,-1.6631,-1.6637,-1.6684,-1.6696,-1.6671,-1.6753,-1.6729,-1.6736,-1.6743,-1.6751,-1.6757,-1.6753,-1.6651,0,0,0,0,0,-1.6476,-1.6507,-1.6527,-1.6571,-1.6582,-1.6594,-1.6611,-1.6613,-1.6635,-1.6644,-1.6659,-1.6682,-1.6712,-1.6732,-1.6761,-1.6815,-1.6821,-1.6839,-1.6845,-1.685,-1.6855,-1.6884,-1.6893,-1.6803,-1.6803,-1.6803,0,0,-1.6498,-1.6516,-1.6535,-1.6575,-1.6592,-1.6624,-1.6601,-1.6636,-1.666,-1.665,-1.6694,-1.6706,-1.6731,-1.6781,-1.6804,-1.6793,-1.6881,-1.6855,-1.6858,-1.6861,-1.6889,-1.6898,-1.6905,-1.6806,-1.6805,-1.6805,0,0,-1.6554,-1.6571,-1.6609,-1.6626,-1.6652,-1.6659,-1.6668,-1.6693,-1.67,-1.6745,-1.6737,-1.6766,-1.6818,-1.6836,-1.6853,-1.6916,-1.6909,-1.6925,-1.6956,-1.6985,-1.6992,-1.6998,-1.7021,-1.7029,-1.693,-1.693,-1.693,0,-1.6578,-1.6626,-1.6629,-1.6664,-1.6682,-1.6674,-1.6713,-1.673,-1.6764,-1.6776,-1.6763,-1.6829,-1.6845,-1.69,-1.6915,-1.6928,-1.6939,-1.6922,-1.6991,-1.6997,-1.7003,-1.7024,-1.7033,-1.6932,-1.6932,-1.6932,-1.6932,0,-1.6654,-1.6687,-1.6715,-1.6748,-1.6769,-1.6806,-1.6815,-1.6836,-1.6835,-1.6844,-1.6889,-1.6909,-1.6942,-1.6955,-1.6954,-1.7009,-1.7001,-1.6989,-1.6966,-1.7013,-1.7034,-1.7042,-1.6935,-1.6934,-1.6934,-1.6933,0,0,-1.6725,-1.6759,-1.6769,-1.6784,-1.6811,-1.6837,-1.6874,-1.6906,-1.6924,-1.6948,-1.6978,-1.7023,-1.7012,-1.703,-1.7032,-1.7057,-1.7106,-1.7042,-1.7043,-1.7053,-1.7168,-1.7177,-1.7186,-1.7102,-1.7103,-1.7105,-1.7166,0,-1.6784,-1.6848,-1.6851,-1.691,-1.694,-1.6933,-1.6965,-1.6985,-1.6995,-1.7022,-1.7033,-1.7064,-1.7047,-1.7058,-1.7083,-1.7095,-1.7129,-1.7091,-1.7131,-1.7132,-1.7125,-1.7197,-1.7207,-1.7263,-1.7174,-1.7175,-1.7176,0,-1.6861,-1.6887,-1.6948,-1.6971,-1.6984,-1.7013,-1.7042,-1.7069,-1.7092,-1.7097,-1.7117,-1.7116,-1.7153,-1.7128,-1.718,-1.7154,-1.717,-1.7179,-1.7181,-1.7185,-1.7157,-1.7203,-1.7281,-1.729,-1.7189,-1.7188,-1.7187,0,-1.6906,-1.6956,-1.7,-1.7012,-1.7041,-1.7061,-1.7074,-1.7095,-1.7114,-1.714,-1.7153,-1.7183,-1.7199,-1.7223,-1.7229,-1.721,-1.7281,-1.7256,-1.7286,-1.7286,-1.7302,-1.7301,-1.7384,-1.7312,-1.7312,-1.7312,-1.7312,0,-1.6972,-1.7009,-1.702,-1.7047,-1.7089,-1.7093,-1.7135,-1.7146,-1.7165,-1.7194,-1.719,-1.7217,-1.7224,-1.7252,-1.7257,-1.73,-1.7307,-1.7312,-1.7313,-1.7313,-1.7312,-1.7324,-1.732,-1.7314,-1.7314,-1.7313,-1.7313,0,-1.703,-1.7039,-1.7085,-1.7108,-1.7115,-1.7145,-1.7164,-1.719,-1.7198,-1.7235,-1.7244,-1.7257,-1.7291,-1.7299,-1.7339,-1.7343,-1.7393,-1.739,-1.7385,-1.7385,-1.7414,-1.7411,-1.7508,-1.7521,-1.7441,-1.7441,-1.7442,0,-1.7071,-1.71,-1.7126,-1.7145,-1.7158,-1.7189,-1.7208,-1.7213,-1.7233,-1.7262,-1.7284,-1.7317,-1.7343,-1.7397,-1.741,-1.7441,-1.7439,-1.747,-1.7443,-1.7442,-1.7439,-1.7438,-1.7441,-1.7476,-1.7477,-1.7477,-1.7478,0,-1.7144,-1.7146,-1.7174,-1.7204,-1.7227,-1.725,-1.7273,-1.7288,-1.7296,-1.732,-1.7353,-1.7374,-1.7414,-1.7447,-1.7478,-1.7491,-1.7486,-1.7486,-1.7495,-1.7495,-1.7491,-1.7494,-1.7399,-1.7484,-1.7483,-1.7483,-1.7483,-1.7482,-1.7195,-1.722,-1.7242,-1.7273,-1.7291,-1.7312,-1.7337,-1.7348,-1.7377,-1.741,-1.7411,-1.7448,-1.747,-1.7511,-1.7526,-1.7555,-1.7546,-1.7558,-1.7561,-1.7564,-1.7567,-1.7486,-1.7561,-1.7561,-1.756,-1.756,-1.756,0,-1.7267,-1.7281,-1.731,-1.7341,-1.7366,-1.7358,-1.7383,-1.7404,-1.7436,-1.7457,-1.7483,-1.7522,-1.7554,-1.757,-1.7601,-1.7621,-1.762,-1.7629,-1.7628,-1.7631,-1.7573,-1.7563,-1.763,-1.763,-1.763,-1.763,-1.763,-1.763,-1.7308,-1.735,-1.7356,-1.7407,-1.742,-1.7456,-1.7471,-1.749,-1.7507,-1.7551,-1.7577,-1.7587,-1.7606,-1.7639,-1.7667,-1.7671,-1.7683,-1.7694,-1.7697,-1.7642,-1.7635,-1.7629,-1.7619,-1.7696,-1.7697,-1.7752,-1.7753,-1.7753]},{"header":{"parameterUnit":"m.s-1","parameterCategory":1,"la1":30.2991,"la2":30.254,"lo1":-89.0895,"lo2":-89.0444,"dy":0.0017,"dx":0.0017,"nx":28,"ny":28,"refTime":"2025-09-15T03:00:00:Z","depth":0,"parameterNumber":3,"parameterNumberName":"V-component_of_WINDS"},"data":[0,0,0,0,0,0,0,0,0,0,0,0,0,0,0,0,0,0,0,0,0,0,0,0,0,0,0,0,0,0,0,0,0,0,0,0,0,0,0,0,0,0,0,0,0,0,0,0,0,0,0,0,0,0,0,0,0,0,3.0003,3.0003,0,2.9998,2.9997,2.9997,2.9943,2.9941,2.994,2.9939,2.9934,2.9935,2.9936,0,0,0,0,0,0,0,0,0,0,0,0,0,2.9965,2.9966,3.0003,3.0003,3.0003,2.9998,2.9997,2.9997,2.9943,2.9941,2.994,2.9938,2.9934,2.9935,2.9936,0,0,0,0,0,0,0,0,0,0,0,0,0,2.9973,2.9967,3.0003,2.9975,2.9972,2.9998,2.9997,2.9997,2.9943,2.9941,2.9939,2.9937,2.9933,2.9935,2.9937,2.9988,0,0,2.9942,2.9943,0,0,0,0,0,0,0,0,2.9973,2.9975,2.9979,2.9977,2.9974,2.9969,2.9982,2.9994,2.9944,2.9954,2.9939,2.9936,2.9947,2.9948,2.9951,2.9988,2.9988,2.9942,2.9943,2.9944,2.9944,0,0,0,0,0,0,0,2.9972,2.9975,3.0001,2.9979,2.9976,2.9963,2.9961,2.9984,2.9962,2.9953,2.9949,2.9949,2.9945,2.995,2.9951,2.9988,2.9942,2.9943,2.9944,2.9945,3.0065,3.0067,0,0,0,0,0,0,2.9976,2.9974,3.0001,3.0,2.9968,2.9965,2.9964,2.9973,2.9962,2.9958,2.9951,2.9947,2.9948,2.9949,2.995,3.0008,2.9944,2.9945,2.9946,3.0063,3.0065,3.0068,0,0,0,0,0,0,2.9975,2.9979,3.0001,2.9986,2.9988,2.9968,2.9978,2.9973,2.9978,2.996,2.9956,2.996,2.9946,2.9948,2.9979,3.0007,2.9946,2.9948,3.006,3.0063,3.0066,3.0126,0,0,0,0,0,0,2.9974,2.9979,2.9998,2.9987,2.9989,3.003,2.998,2.9975,2.9981,2.9975,2.9967,2.9964,2.9945,2.9976,2.998,3.0009,2.9949,3.0057,3.0062,3.0065,3.0121,3.0131,3.0139,0,0,0,0,0,2.9973,3.0016,2.9999,3.0003,3.0013,3.0031,3.0033,3.001,2.9983,3.0002,2.9991,2.9964,3.0004,2.998,2.9984,3.0013,3.0055,3.006,3.0065,3.0117,3.0129,3.0139,0,0,0,0,0,0,3.0031,3.0014,2.9995,3.0036,3.0035,3.0022,3.0046,3.0023,3.003,3.0025,2.9996,2.9995,3.0029,3.0025,2.9998,3.0062,3.0025,3.0031,3.0063,3.0074,3.0083,3.0082,2.995,0,0,0,0,0,3.0048,3.0065,3.0049,3.0086,3.0087,3.0066,3.0074,3.0056,3.0054,3.0054,3.0045,3.0045,3.0057,3.0066,3.0076,3.0121,3.0118,3.0143,3.0152,3.0159,3.0164,3.0186,3.0196,3.0083,3.0083,3.0083,0,0,3.0084,3.0077,3.0089,3.0097,3.0095,3.0112,3.0067,3.0087,3.0099,3.0057,3.0085,3.0079,3.0077,3.0114,3.013,3.0111,3.0195,3.0166,3.0172,3.0172,3.0192,3.0202,3.0212,3.0087,3.0086,3.0086,0,0,3.0158,3.0155,3.0184,3.0183,3.018,3.0166,3.0173,3.0163,3.0157,3.0185,3.0153,3.0168,3.019,3.0189,3.0192,3.0265,3.024,3.027,3.0315,3.0336,3.0345,3.0353,3.0377,3.0386,3.0275,3.0275,3.0275,0,3.0203,3.0228,3.0203,3.0225,3.0228,3.0191,3.022,3.022,3.0221,3.0224,3.0203,3.023,3.0226,3.0262,3.0279,3.0284,3.029,3.0269,3.0346,3.0353,3.036,3.0383,3.0392,3.0278,3.0278,3.0278,3.0277,0,3.0282,3.03,3.0324,3.0324,3.0331,3.0357,3.0336,3.0346,3.0328,3.0316,3.0344,3.0338,3.0346,3.0354,3.0337,3.0387,3.0375,3.0351,3.0313,3.0375,3.0395,3.0404,3.0283,3.0282,3.0281,3.028,0,0,3.0391,3.0377,3.0386,3.0385,3.0379,3.0392,3.0416,3.0423,3.0432,3.0434,3.0452,3.0472,3.0448,3.0451,3.0434,3.0453,3.0509,3.0426,3.0425,3.044,3.0562,3.0579,3.059,3.0493,3.0495,3.0496,3.0562,0,3.0461,3.0499,3.0477,3.0519,3.0534,3.0499,3.052,3.0518,3.0508,3.0519,3.0508,3.0522,3.0491,3.0492,3.051,3.0499,3.0533,3.0494,3.0509,3.051,3.0508,3.0601,3.0619,3.0681,3.057,3.0571,3.0572,0,3.0546,3.0551,3.0594,3.0583,3.0589,3.0607,3.0611,3.0623,3.062,3.0612,3.0615,3.0593,3.0615,3.0579,3.0608,3.0582,3.0588,3.0583,3.0585,3.0584,3.0543,3.06,3.0701,3.0709,3.0585,3.0584,3.0583,0,3.0619,3.0636,3.0663,3.0664,3.0653,3.0667,3.0663,3.0658,3.0663,3.0668,3.067,3.0678,3.0681,3.0687,3.0667,3.0643,3.0699,3.0662,3.0691,3.0692,3.0703,3.0702,3.0804,3.071,3.071,3.071,3.071,0,3.0697,3.0724,3.0695,3.0712,3.0741,3.0716,3.0746,3.0738,3.0734,3.0749,3.072,3.0734,3.0708,3.072,3.0705,3.073,3.0733,3.0726,3.0721,3.0727,3.0728,3.0729,3.0723,3.0712,3.0712,3.0711,3.0711,0,3.0782,3.0764,3.0791,3.0778,3.0776,3.0798,3.0787,3.0801,3.079,3.0808,3.0811,3.0793,3.0805,3.0786,3.0796,3.0786,3.0821,3.0811,3.0822,3.0818,3.0848,3.0844,3.0951,3.0963,3.0865,3.0866,3.0866,0,3.0832,3.0852,3.0841,3.0848,3.0846,3.0858,3.0863,3.0839,3.0846,3.0844,3.0859,3.0868,3.0874,3.0895,3.0883,3.089,3.0879,3.0916,3.088,3.0885,3.0877,3.0875,3.0876,3.0922,3.0924,3.0925,3.0925,0,3.0922,3.0912,3.092,3.0925,3.0931,3.0934,3.0935,3.0943,3.0918,3.0927,3.0938,3.0943,3.0953,3.0962,3.0967,3.0963,3.094,3.0937,3.0944,3.0949,3.0954,3.095,3.0839,3.0934,3.0933,3.0933,3.0932,3.0932,3.099,3.1005,3.0999,3.1009,3.1007,3.1008,3.1021,3.101,3.1019,3.1025,3.1011,3.1025,3.1021,3.1025,3.1023,3.1034,3.1018,3.1029,3.1031,3.1033,3.1037,3.0954,3.1035,3.1035,3.1035,3.1035,3.1034,0,3.1076,3.1071,3.108,3.1081,3.1089,3.1067,3.1066,3.1074,3.1087,3.1085,3.1091,3.1104,3.1113,3.1102,3.1108,3.1119,3.1109,3.1122,3.112,3.1119,3.1052,3.1044,3.113,3.113,3.113,3.113,3.113,3.113,3.1122,3.1146,3.1135,3.1158,3.1152,3.1166,3.1167,3.1168,3.1166,3.1181,3.1188,3.118,3.1174,3.118,3.1188,3.1184,3.1187,3.1203,3.1196,3.1133,3.1124,3.1115,3.1107,3.1205,3.1205,3.1261,3.1262,3.1262]}]]